{"data":{"norad_id":62233,"intl_designator":"2024-231R","name":"STARLINK-32643","alt_names":[],"object_type":"PAYLOAD","status":"ACTIVE","operator":null,"country":"US","launch_date":"2024-12-05","launch_site_code":"AFWTR","launch_vehicle":null,"mission":null,"orbit_class":"UNKNOWN","rcs_meters":null,"size_class":null,"mass_kg":null,"dimensions":null,"purposes":["comms"],"wikipedia_slug":null,"has_3d_model":false,"image_url":null,"decayed_at":null,"tle_current":{"epoch":"2026-05-25T04:20:19.146624Z","epoch_age_seconds":56120,"freshness":"FRESH","line1":"1 62233U 24231R   26145.18077716  .00018799  00000+0  61566-3 0  9993","line2":"2 62233  53.1599 211.2603 0001462  99.9732 260.1435 15.31719383 83651","mean_motion":15.31719383,"eccentricity":0.0001462,"inclination_deg":53.1599,"raan_deg":211.2603,"arg_perigee_deg":99.9732,"mean_anomaly_deg":260.1435,"bstar":0.00061566,"rev_number":8365,"period_min":94.011998279975,"perigee_km":469.68091875117,"apogee_km":471.68351348996,"semimajor_km":6848.8192161206,"source":"CELESTRAK","updated_at":"2026-05-25T13:38:19.638800Z"}}}